User: anonymous   Login
Location: Valdosta
(30.8330°N, 83.2790°W)
Time: 20:46:25
(UTC-04:00)
Language:

Oscar 19 - Orbit

View from above orbital plane
View from above orbital plane
View from above satellite
View from above satellite

Ground track
Ground track

The orbit data is extracted from the following two-line orbital elements,

1 20442U 90005G   17084.76639880 +.00000016 +00000-0 +22030-4 0  9991
2 20442 098.5701 022.1546 0012545 038.6684 321.5396 14.32852852419616
Epoch (UTC): 25 March 2017 18:23:36
Eccentricity: 0.0012545
inclination: 98.5701°
perigee height: 773 km
apogee height: 791 km
right ascension of ascending node: 22.1546°
argument of perigee: 38.6684°
revolutions per day: 14.32852852
mean anomaly at epoch: 321.5396°
orbit number at epoch: 41961

The dashed part of the orbit path shows where the satellite is in the earth's shadow,  

DLR